Voltar ao catálogo

COSMOS 2371

AtivoNavegaçãoGEO
NORAD 26394·PAYLOAD·🇷🇺 Russia

Lançado Jul 4, 2000 de Baikonur Cosmodrome

Loading…

TLE

AtualizadoSource: Space-Track

Época: Sep 14, 2026, 20:59 UTC

1 26394U 00036A   26257.87433387 -.00000083  00000-0  00000-0 0  9990
2 26394  14.0409   6.8290 0003385 188.1810 185.0307  1.00280198 95945

Acompanhe COSMOS 2371 em tempo real com AllMySat

Download on the App Store